{"data":{"norad_id":37165,"intl_designator":"2010-047A","name":"YAOGAN-11","alt_names":[],"object_type":"PAYLOAD","status":"ACTIVE","operator":null,"country":"PRC","launch_date":"2010-09-22","launch_site_code":"JSC","launch_vehicle":null,"mission":null,"orbit_class":"UNKNOWN","rcs_meters":3.3345,"size_class":null,"mass_kg":null,"dimensions":null,"purposes":[],"wikipedia_slug":null,"has_3d_model":false,"image_url":null,"decayed_at":null,"tle_current":{"epoch":"2026-05-25T02:16:46.998624Z","epoch_age_seconds":64057,"freshness":"FRESH","line1":"1 37165U 10047A   26145.09498841  .00000613  00000+0  84099-4 0  9998","line2":"2 37165  98.3886  10.1061 0033866 318.2029  41.6597 14.82041699844671","mean_motion":14.82041699,"eccentricity":0.0033866,"inclination_deg":98.3886,"raan_deg":10.1061,"arg_perigee_deg":318.2029,"mean_anomaly_deg":41.6597,"bstar":8.4099e-5,"rev_number":84467,"period_min":97.163258022472,"perigee_km":599.17721547893,"apogee_km":646.596550443,"semimajor_km":7001.023882961,"source":"CELESTRAK","updated_at":"2026-05-25T13:37:55.223404Z"}}}